#timestamp,LO_Frequency,Hit 
1503201615.4,286047004.0,N
1503201635.2,286046999.9,N
1503201655.1,286047001.3,N
1503201656.0,286047001.3,N
1503201675.8,286047003.8,N
1503201695.6,286047001.4,N
1503201715.5,286047000.9,N
1503201735.3,286047004.1,N
1503201755.1,286047003.7,N
1503201775.9,286047003.7,N
1503201795.7,286047004.1,N
1503201815.5,286047003.1,N
1503201835.3,286047002.9,N
1503201855.2,286047003.6,N
1503201875.0,286047004.9,P
1503201875.9,286047004.9,P
1503201895.8,286047003.5,P
1503201915.6,286047001.7,N
1503201935.4,286047004.4,P
1503201955.3,286046999.5,N
1503201975.1,286046998.1,N
1503201976.0,286046998.1,N
1503201995.8,286046998.4,N
1503202015.7,286046999.6,N
1503202035.5,286047000.8,N
1503202055.3,286046998.9,N
1503202075.1,286046999.2,N
1503202095.9,286046996.9,N
1503202115.7,286046997.8,N
1503202135.5,286046997.2,N
1503202155.4,286046996.5,N
1503202175.2,286046996.6,N
1503202195.0,286046998.7,N
1503202195.9,286046998.7,N
1503202215.8,286047000.5,N
1503202235.6,286046999.5,N
1503202255.4,286047000.5,N
1503202275.3,286047000.5,N
1503202295.1,286046998.6,N
1503202296.0,286046998.6,N
1503202315.8,286046998.5,N
1503202335.7,286046998.7,N
1503202355.5,286047002.3,N
1503202375.3,286047004.3,N
1503202395.1,286047000.3,N
1503202415.9,286046998.3,N
1503202435.7,286047000.5,N
1503202455.5,286047002.5,N
1503202475.4,286047000.1,N
1503202495.2,286047002.0,N
1503202515.0,286047004.1,N
1503202515.9,286047004.1,N
1503202535.8,286047004.4,N
1503202555.6,286047000.0,N
1503202575.4,286047000.6,N
1503202595.3,286047000.9,N
1503202615.1,286046998.2,N
1503202616.0,286046998.2,N
1503202635.8,286047000.2,N
1503202655.7,286047002.6,N
1503202675.5,286047002.2,N
1503202695.3,286046998.8,N
1503202715.2,286046998.8,N
1503202735.9,286046999.8,N
1503202755.7,286047002.1,N
1503202775.5,286047002.7,N
1503202795.4,286047003.6,N
1503202815.2,286047003.7,N
1503202835.0,286047003.8,N
1503202835.9,286047003.8,N
1503202855.8,286047003.9,N
1503202875.6,286047005.4,N
1503202895.4,286047004.9,N
1503202915.3,286047004.8,N
1503202935.1,286047003.0,N
1503202955.8,286047007.6,P
1503202975.7,286047005.6,N
1503202995.5,286047004.5,N
1503203015.3,286047005.4,N
1503203035.2,286047005.1,N
1503203055.9,286047007.5,P
1503203075.7,286047001.9,N
1503203095.6,286046999.9,N
1503203115.4,286046999.5,N
1503203135.2,286046999.2,N
1503203155.1,286046996.6,N
1503203156.0,286046996.6,N
1503203175.8,286046999.6,N
1503203195.6,286046995.2,N
1503203215.5,286046995.8,N
1503203235.3,286046991.8,N
1503203255.1,286046989.4,N
1503203275.9,286046989.1,N
1503203295.7,286046991.1,N
1503203315.5,286046991.1,N
1503203335.4,286046990.2,N
1503203355.2,286046994.2,N
1503203375.0,286046990.6,N
1503203375.9,286046990.6,N
1503203395.8,286046993.1,N
1503203415.6,286046992.3,N
1503203435.4,286046994.8,N
1503203455.2,286046993.9,N
1503203475.1,286046996.8,N
1503203476.0,286046996.8,N
1503203495.8,286046997.6,N
1503203515.6,286046998.9,N
1503203535.5,286046998.1,N
1503203555.3,286046996.5,N
1503203575.1,286046999.0,N
1503203595.9,286046998.9,N
1503203615.7,286046998.4,N
1503203635.5,286046998.1,N
1503203655.4,286046998.2,N
1503203675.2,286047001.2,N
1503203695.0,286046996.8,N
1503203695.9,286046996.8,N
1503203715.8,286046998.7,N
1503203735.6,286047000.7,N
1503203755.4,286047000.5,N
1503203775.2,286047000.9,N
1503203795.1,286047000.6,N
1503203796.0,286047000.6,N
1503203815.8,286047002.5,N
1503203835.6,286047000.2,N
1503203855.5,286047000.0,N
1503203875.3,286047000.3,N
1503203895.1,286047001.6,N
1503203915.9,286047004.0,N
1503203935.7,286047001.6,N
1503203955.5,286047002.3,N
1503203975.4,286047003.9,N
1503203995.2,286047001.9,N
1503204015.0,286047001.0,N
1503204015.9,286047001.0,N
1503204035.8,286046998.8,N
1503204055.6,286047000.9,N
1503204075.4,286046996.8,N
1503204095.3,286046997.0,N
1503204115.1,286046996.0,N
1503204116.0,286046996.0,N
1503204135.8,286046997.1,N
1503204155.6,286046997.9,N
1503204175.5,286046999.2,N
1503204195.3,286047000.4,N
1503204215.1,286047001.8,N
1503204235.9,286047003.1,N
1503204255.7,286047002.1,N
1503204275.5,286047002.3,N
1503204295.4,286047002.3,N
1503204315.2,286047000.1,N
1503204335.0,286047002.8,N
1503204335.9,286047002.8,N
1503204355.8,286047000.6,N
1503204375.6,286047001.1,N
1503204395.4,286047000.8,N
1503204415.3,286047001.0,N
1503204435.1,286046999.8,N
1503204436.0,286046999.8,N
1503204455.8,286047001.3,N
1503204475.7,286047004.2,N
1503204495.5,286047001.4,N
1503204515.3,286047003.2,N
1503204535.1,286047003.4,N
1503204555.9,286047003.9,N
1503204575.7,286047003.0,N
1503204595.5,286047007.0,N
1503204615.4,286047004.5,N
1503204635.2,286047005.5,N
1503204655.0,286046999.8,N
1503204655.9,286046999.8,N
1503204675.8,286046999.5,N
1503204695.6,286046999.0,N
1503204715.4,286047000.7,N
1503204735.3,286047000.2,N
1503204755.1,286047001.6,N
1503204756.0,286047001.6,N
1503204775.8,286047002.9,N
1503204795.7,286047003.7,N
1503204815.5,286047003.4,N
1503204835.3,286047005.3,N
1503204855.1,286047003.8,N
1503204875.9,286047004.7,N
1503204895.7,286047005.9,N
1503204915.5,286047004.8,N
1503204935.4,286047005.6,N
1503204955.2,286047007.1,P
1503204975.0,286047002.9,N
1503204975.9,286047002.9,N
1503204995.8,286047003.2,N
1503205015.6,286047000.8,N
1503205035.4,286046996.5,N
1503205055.3,286046999.6,N
1503205075.1,286046997.7,N
1503205095.8,286046995.4,N
1503205115.7,286046997.5,N
1503205135.5,286046999.5,N
1503205155.3,286046996.5,N
1503205175.2,286046998.4,N
1503205195.9,286046993.8,N
